User: anonymous   Login
Location: Caltech
(34.1382°N, 118.1253°W)
Time: 17:11:35
(UTC-07:00)
Language:

Cosmos 1937 Rocket - Orbit

View from above orbital plane
View from above orbital plane
View from above satellite
View from above satellite

Ground track
Ground track

The orbit data is extracted from the following two-line orbital elements,

1 19039U 88029B   16270.08485385 -.00000035  00000-0 -28909-5 0  9999
2 19039  74.0458  65.7529 0024556 303.2719 157.3696 14.38330525492885
Epoch (UTC): 26 September 2016 02:02:11
Eccentricity: 0.0024556
inclination: 74.0458°
perigee height: 746 km
apogee height: 781 km
right ascension of ascending node: 65.7529°
argument of perigee: 303.2719°
revolutions per day: 14.38330525
mean anomaly at epoch: 157.3696°
orbit number at epoch: 49288

The dashed part of the orbit path shows where the satellite is in the earth's shadow,  

DLR